Location: ????????
(37.6846°N, 24.0673°E)
Time: 12:12:15
(UTC+00:00)

SL-27 R/B - Pass Details

Date: 14 July 2020
Orbit: 420 x 470 km, 74.7° (Epoch: 09 August)

Event Time Altitude Azimuth Distance (km) Brightness Sun altitude
Exits shadow 02:20:48 14° 229° (SW) 1,382 4.2 -9.6°
Maximum altitude 02:23:27 34° 291° (WNW) 771 3.3 -9.2°
Drops below altitude 10° 02:26:38 10° 358° (N) 1,579 5.7 -8.7°
Sets 02:28:50 0° 8° (N) 2,444 6.8 -8.3°
